Grand Forks, ND

2:57 PM CDT on May 25, 2017 (GMT -0500)
Grand Forks International

Weather History for KGFK - May, 2012

Change the Weather History Date:

Thursday, May 17, 2012

  Actual Average Record
Temperature  
Mean Temperature 74 °F 55 °F  
Max Temperature 88 °F 69 °F 89 °F (1972)
Min Temperature 59 °F 42 °F 25 °F (2002)
Degree Days  
Heating Degree Days 0 10  
Month to date heating degree days 120 221  
Since 1 July heating degree days 7346 9299  
Cooling Degree Days 9 1  
Month to date cooling degree days 12 2  
Year to date cooling degree days 12 3  
Growing Degree Days 24 (Base 50)    
Moisture  
Dew Point 44 °F    
Average Humidity 47    
Maximum Humidity 67    
Minimum Humidity 27    
Precipitation  
Precipitation 0.00 in 0.10 in 1.70 in (1996)
Month to date precipitation 0.47 1.35  
Year to date precipitation 4.56 4.39  
Snow  
Snow 0.00 in 0.00 in T in (2015)
Month to date snowfall 0.0 0.1  
Since 1 July snowfall 22.8 47.4  
Snow Depth 0.00 in    
Sea Level Pressure  
Sea Level Pressure 29.59 in    
Wind  
Wind Speed 11 mph (South)    
Max Wind Speed 23 mph    
Max Gust Speed 30 mph    
Visibility 10 miles    
Events      
T = Trace of Precipitation, MM = Missing Value Source: NWS Daily Summary

Daily Weather History Graph

Daily Weather History Graph

Search for Another Location

Airport or City:

Trip Planner

Search our weather history database for the weather conditions in past years. The results will help you decide how hot, cold, wet, or windy it might be!

Date:

Astronomy

May. 17, 2012 Rise Set
Actual Time 5:47 AM CDT 9:04 PM CDT
Civil Twilight 5:09 AM CDT 9:41 PM CDT
Nautical Twilight 4:20 AM CDT 10:30 PM CDT
Astronomical Twilight 3:18 AM CDT 11:34 PM CDT
Moon 3:58 AM CDT (5/17) 6:07 PM CDT (5/17)
Length of Visible Light 16h 31m
Length of Day
15h 16m
Waning Crescent, 9% of the Moon is Illuminated
May 17
Waning Crescent
May 20
New
May 28
First Quarter
Jun 4
Full
Jun 11
Last Quarter

Hourly Weather History & Observations

Time (CDT) Temp. Heat Index Dew Point Humidity Pressure Visibility Wind Dir Wind Speed Gust Speed Precip Events Conditions
12:53 AM 63.0 °F - 34.0 °F 34% 29.78 in 10.0 mi SE 16.1 mph - N/A   Mostly Cloudy
1:53 AM 62.1 °F - 35.1 °F 37% 29.76 in 10.0 mi SE 13.8 mph - N/A   Mostly Cloudy
2:53 AM 61.0 °F - 35.1 °F 38% 29.73 in 10.0 mi SE 12.7 mph - N/A   Overcast
3:53 AM 61.0 °F - 35.1 °F 38% 29.70 in 10.0 mi SSE 13.8 mph - N/A   Scattered Clouds
4:53 AM 60.1 °F - 35.1 °F 39% 29.68 in 10.0 mi SSE 13.8 mph - N/A   Mostly Cloudy
5:53 AM 63.0 °F - 34.0 °F 34% 29.65 in 10.0 mi SSE 13.8 mph 23.0 mph N/A   Mostly Cloudy
6:53 AM 63.0 °F - 35.1 °F 35% 29.65 in 10.0 mi SSE 11.5 mph - N/A   Mostly Cloudy
7:53 AM 66.0 °F - 37.0 °F 34% 29.63 in 10.0 mi South 18.4 mph 24.2 mph N/A   Mostly Cloudy
8:53 AM 68.0 °F - 37.9 °F 33% 29.61 in 10.0 mi SSE 23.0 mph 29.9 mph N/A   Mostly Cloudy
9:53 AM 72.0 °F - 41.0 °F 33% 29.60 in 10.0 mi South 15.0 mph 24.2 mph N/A   Mostly Cloudy
10:53 AM 77.0 °F - 44.1 °F 31% 29.57 in 10.0 mi South 16.1 mph 25.3 mph N/A   Mostly Cloudy
11:53 AM 79.0 °F - 46.0 °F 31% 29.56 in 10.0 mi South 16.1 mph - N/A   Mostly Cloudy
12:53 PM 81.0 °F - 46.9 °F 30% 29.55 in 10.0 mi South 12.7 mph - N/A   Scattered Clouds
1:53 PM 84.0 °F - 46.9 °F 27% 29.52 in 10.0 mi South 16.1 mph 21.9 mph N/A   Scattered Clouds
2:53 PM 84.9 °F - 48.9 °F 29% 29.52 in 10.0 mi South 12.7 mph 21.9 mph N/A   Mostly Cloudy
3:53 PM 88.0 °F - 51.1 °F 28% 29.51 in 10.0 mi SSW 15.0 mph 23.0 mph N/A   Mostly Cloudy
4:53 PM 86.0 °F - 50.0 °F 29% 29.50 in 10.0 mi South 11.5 mph - N/A   Mostly Cloudy
5:53 PM 88.0 °F - 51.1 °F 28% 29.49 in 10.0 mi SW 9.2 mph - N/A   Mostly Cloudy
6:53 PM 84.9 °F 83.2 °F 53.1 °F 33% 29.49 in 10.0 mi SSW 8.1 mph - N/A   Mostly Cloudy
7:53 PM 79.0 °F - 51.1 °F 38% 29.49 in 10.0 mi South 4.6 mph - N/A   Mostly Cloudy
8:53 PM 78.1 °F - 51.1 °F 39% 29.51 in 10.0 mi Calm Calm - N/A   Mostly Cloudy
9:53 PM 69.1 °F - 51.1 °F 53% 29.52 in 10.0 mi Calm Calm - N/A   Mostly Cloudy
10:53 PM 71.1 °F - 50.0 °F 47% 29.52 in 10.0 mi Calm Calm - N/A   Mostly Cloudy
11:53 PM 64.9 °F - 53.1 °F 65% 29.52 in 10.0 mi Calm Calm - N/A   Mostly Cloudy